Find Starlink 5200

NORAD ID: 54103 Int'l Des: 2022-136 Owner: SPXS Country: US Constellation: starlink operational
LEOCIRCULAR

Live Position

Loading 3D Globe...

About Starlink 5200

Description loading...

Upcoming Passes

Passes for default location (London). Set your location on the main map for personalized predictions.

Altitude History

Loading altitude history...

Two-Line Element Set

1 54103U 22136BE 26107.08100521 .00000013 00000-0 18901-4 0 9997
2 54103 53.2158 141.5609 0001230 77.1595 282.9535 15.08846126193069
Epoch: Apr 17, 2026 • Age: 16 hours

Current Status

Altitude 545.1 km
Velocity 7.60 km/s
Sub-Earth Point 51.25°N, 130.25°E
Launch Date Oct 20, 2022
Age 3.4 years
Type internet

Technical Details

Classification Payload
Mass 305.00 kg
Dry Mass 290.00 kg
Total Mass 305.00 kg
Length 0.20 m
Diameter 2.80 m
Span 9.00 m
Shape Box + pan
Manufacturer SPXS
Bus Type Starlink
Phase Status In Orbit
Owner/State SPXS/US

Most Searched